Weather History for KPOU - January, 2014

Change the Weather History Date:

Friday, January 24, 2014

  Actual Average Record
Temperature  
Mean Temperature 15 °F 25 °F  
Max Temperature 21 °F 36 °F 63 °F (1967)
Min Temperature 8 °F 15 °F -15 °F (1961)
Degree Days  
Heating Degree Days 50 40  
Month to date heating degree days 947 952  
Since 1 July heating degree days 3225 3281  
Cooling Degree Days 0 0  
Month to date cooling degree days 0 0  
Year to date cooling degree days 0 0  
Moisture  
Dew Point -4 °F    
Average Humidity 45    
Maximum Humidity 61    
Minimum Humidity 30    
Precipitation  
Precipitation 0.00 in 0.10 in 0.78 in (1979)
Month to date precipitation 1.45 2.40  
Year to date precipitation 1.45 2.40  
Sea Level Pressure  
Sea Level Pressure 30.23 in    
Wind  
Wind Speed 8 mph (WSW)    
Max Wind Speed 13 mph    
Max Gust Speed 26 mph    
Visibility 10 miles    
Events      
T = Trace of Precipitation, MM = Missing Value Source: NWS Daily Summary

Daily Weather History Graph

Daily Weather History Graph

Search for Another Location

Airport or City:

Trip Planner

Search our weather history database for the weather conditions in past years. The results will help you decide how hot, cold, wet, or windy it might be!

Date:

Astronomy

Jan. 24, 2014 Rise Set
Actual Time 7:14 AM EST 5:01 PM EST
Civil Twilight 6:44 AM EST 5:31 PM EST
Nautical Twilight 6:10 AM EST 6:04 PM EST
Astronomical Twilight 5:38 AM EST 6:37 PM EST
Moon 12:37 AM EST (1/24) 11:19 AM EST (1/24)
Length of Visible Light 10h 46m
Length of Day
9h 46m
Last Quarter, 45% of the Moon is Illuminated
Jan 24
Last Quarter
Jan 30
New
Feb 6
First Quarter
Feb 14
Full
Feb 22
Last Quarter

Hourly Weather History & Observations

Time (EST) Temp. Windchill Dew Point Humidity Pressure Visibility Wind Dir Wind Speed Gust Speed Precip Events Conditions
12:53 AM 12.0 °F 1.5 °F -2.0 °F 53% 30.25 in 10.0 mi WSW 6.9 mph - N/A   Clear
1:53 AM 12.0 °F 0.5 °F -2.9 °F 51% 30.26 in 10.0 mi WSW 8.1 mph - N/A   Clear
2:53 AM 10.9 °F -1.8 °F -2.9 °F 54% 30.27 in 10.0 mi WSW 9.2 mph - N/A   Clear
3:53 AM 10.0 °F -1.9 °F -2.9 °F 56% 30.27 in 10.0 mi West 8.1 mph - N/A   Clear
4:53 AM 9.0 °F -2.2 °F -2.9 °F 59% 30.28 in 10.0 mi WSW 6.9 mph - N/A   Clear
5:53 AM 9.0 °F 0.6 °F -2.9 °F 59% 30.30 in 10.0 mi SW 4.6 mph - N/A   Clear
6:53 AM 8.1 °F -4.3 °F -2.9 °F 61% 30.32 in 10.0 mi WSW 8.1 mph - N/A   Clear
7:53 AM 9.0 °F 0.6 °F -4.0 °F 56% 30.35 in 10.0 mi West 4.6 mph - N/A   Clear
8:53 AM 12.0 °F 2.7 °F -4.0 °F 49% 30.35 in 10.0 mi WNW 5.8 mph - N/A   Clear
9:53 AM 14.0 °F 2.9 °F -5.1 °F 43% 30.35 in 10.0 mi West 8.1 mph - N/A   Clear
10:53 AM 15.1 °F 1.8 °F -5.1 °F 41% 30.34 in 10.0 mi West 11.5 mph - N/A   Clear
11:53 AM 17.1 °F 3.6 °F -4.0 °F 39% 30.30 in 10.0 mi West 12.7 mph 18.4 mph N/A   Clear
12:53 PM 19.0 °F 6.1 °F -4.0 °F 36% 30.27 in 10.0 mi West 12.7 mph 26.5 mph N/A   Partly Cloudy
1:53 PM 19.9 °F 8.6 °F -5.1 °F 33% 30.23 in 10.0 mi WSW 10.4 mph 18.4 mph N/A   Clear
2:53 PM 19.9 °F 7.9 °F -7.1 °F 30% 30.20 in 10.0 mi West 11.5 mph - N/A   Clear
3:53 PM 19.9 °F 7.9 °F -7.1 °F 30% 30.19 in 10.0 mi WSW 11.5 mph - N/A   Clear
4:53 PM 19.0 °F 11.1 °F -6.0 °F 33% 30.17 in 10.0 mi SSW 5.8 mph - N/A   Clear
5:53 PM 18.0 °F 12.7 °F -5.1 °F 36% 30.17 in 10.0 mi South 3.5 mph - N/A   Clear
6:53 PM 18.0 °F 9.8 °F -5.1 °F 36% 30.16 in 10.0 mi South 5.8 mph - N/A   Clear
7:53 PM 18.0 °F 6.9 °F -2.0 °F 41% 30.14 in 10.0 mi SSW 9.2 mph - N/A   Clear
8:53 PM 16.0 °F 7.4 °F -0.9 °F 47% 30.12 in 10.0 mi SSW 5.8 mph - N/A   Partly Cloudy
9:53 PM 16.0 °F 5.3 °F -2.0 °F 45% 30.11 in 10.0 mi South 8.1 mph - N/A   Clear
10:53 PM 16.0 °F 6.3 °F -2.9 °F 43% 30.07 in 10.0 mi South 6.9 mph 16.1 mph N/A   Partly Cloudy
11:53 PM 17.1 °F 5.8 °F -4.0 °F 39% 30.04 in 10.0 mi SSW 9.2 mph 16.1 mph N/A   Scattered Clouds